This is the latest recevied weather packets stored in our database for station/object N2WH. If no packets are shown the sender has not sent any weather packets the latest 10 day(s).
| Time | Temp. | Humidity | Pressure | Rain* | Wind** | Luminosity | Snow |
|---|---|---|---|---|---|---|---|
| 1777319931 | 22.78° C | 35% | 1024.1 hPa | 0 mm | - | 510 W/m² | - |
| 1777319628 | 22.78° C | 37% | 1023.9 hPa | 0 mm | - | 513 W/m² | - |
| 1777319325 | 22.22° C | 36% | 1024 hPa | 0 mm | - | 571 W/m² | - |
| 1777319022 | 21.67° C | 35% | 1024 hPa | 0 mm | - | 593 W/m² | - |
| 1777318719 | 22.78° C | 36% | 1023.8 hPa | 0 mm | - | 584 W/m² | - |
| 1777318415 | 22.22° C | 36% | 1024 hPa | 0 mm | - | 520 W/m² | - |
| 1777318112 | 21.67° C | 36% | 1024 hPa | 0 mm | - | 511 W/m² | - |
| 1777317809 | 22.78° C | 36% | 1024.1 hPa | 0 mm | - | 562 W/m² | - |
| 1777317506 | 22.78° C | 35% | 1023.8 hPa | 0 mm | - | 599 W/m² | - |
| 1777317203 | 22.22° C | 36% | 1024 hPa | 0 mm | - | 600 W/m² | - |
| 1777316898 | 22.22° C | 37% | 1024.1 hPa | 0 mm | - | 624 W/m² | - |
| 1777316596 | 21.67° C | 37% | 1023.9 hPa | 0 mm | - | 638 W/m² | - |
| 1777316293 | 22.22° C | 38% | 1024.2 hPa | 0 mm | - | 607 W/m² | - |
| 1777315990 | 22.22° C | 38% | 1024.1 hPa | 0 mm | - | 640 W/m² | - |
| 1777315689 | 21.11° C | 38% | 1024.2 hPa | 0 mm | - | 668 W/m² | - |
| 1777315386 | 22.22° C | 37% | 1024.4 hPa | 0 mm | - | 673 W/m² | - |
| 1777315084 | 22.22° C | 37% | 1024.3 hPa | 0 mm | - | 667 W/m² | - |
| 1777314784 | 21.11° C | 39% | 1024.2 hPa | 0 mm | - | 650 W/m² | - |
| 1777314481 | 22.22° C | 36% | 1024.3 hPa | 0 mm | - | 644 W/m² | - |
| 1777314178 | 21.67° C | 38% | 1024.5 hPa | 0 mm | - | 596 W/m² | - |
| 1777313876 | 21.67° C | 37% | 1024.6 hPa | 0 mm | - | 561 W/m² | - |
| 1777313572 | 21.67° C | 39% | 1024.6 hPa | 0 mm | - | 601 W/m² | - |
| 1777313271 | 21.67° C | 39% | 1024.5 hPa | 0 mm | - | 658 W/m² | - |
| 1777312966 | 21.67° C | 37% | 1024.7 hPa | 0 mm | - | 683 W/m² | - |
| 1777312663 | 21.67° C | 37% | 1024.7 hPa | 0 mm | - | 699 W/m² | - |
* Rain latest hour (hover to see other rain measurements)
** Current wind speed in m/s (hover to see current wind gust speed)